[[{"header":{"parameterUnit":"m.s-1","parameterCategory":1,"la1":30.2992,"la2":30.254,"lo1":-89.0895,"lo2":-89.0443,"dy":0.0025,"dx":0.0025,"nx":19,"ny":19,"refTime":"2026-05-24T21:00:00:Z","depth":0,"parameterNumber":2,"parameterNumberName":"U-component_of_WINDS"},"data":[0,0,0,2.5887,2.5887,2.5861,2.5861,2.5846,2.5846,0,0,0,0,0,0,0,0,0,0,0,2.5906,2.5906,2.5887,2.5887,2.5861,2.5861,2.5846,2.5846,0,0,0,0,0,0,0,0,0,0,0,2.5906,2.5906,2.5907,2.5886,2.5861,2.5861,2.5846,2.5859,0,0,0,0,0,0,0,0,0,0,2.5881,2.591,2.5906,2.5907,2.5886,2.5861,2.5861,2.5859,2.5858,2.5866,0,2.5876,0,2.5861,2.5847,2.5847,0,0,0,2.5878,2.5911,2.5893,2.5907,2.5886,2.5861,2.587,2.5858,2.5857,2.5865,2.5876,2.5875,2.5861,2.5847,2.5847,2.5919,2.592,0,0,2.5879,2.5908,2.5894,2.5893,2.5899,2.5871,2.5869,2.5857,2.5871,2.5876,2.5874,2.5861,2.5847,2.5847,2.5918,2.5919,0,0,0,2.5889,2.5909,2.5891,2.5894,2.5888,2.587,2.5869,2.5872,2.5864,2.5874,2.586,2.5847,2.5847,2.5917,2.5919,2.5982,0,0,0,2.589,2.5915,2.5892,2.591,2.5889,2.588,2.5884,2.5865,2.5862,2.586,2.5847,2.5847,2.5917,2.5918,2.5979,2.6008,0,0,0,2.5904,2.5916,2.5916,2.5911,2.5901,2.5879,2.587,2.5863,2.5855,2.5847,2.5847,2.5916,2.5918,2.5975,2.6002,2.6034,0,0,0,2.5927,2.5974,2.5918,2.5965,2.5902,2.5919,2.587,2.5882,2.5882,2.5847,2.5917,2.5918,2.5974,2.5999,2.6031,2.6066,2.6083,0,0,2.6002,2.5984,2.601,2.5959,2.5993,2.5921,2.5964,2.5938,2.5912,2.5918,2.5919,2.598,2.6002,2.6033,2.6171,2.6185,0,0,0,2.6043,2.6062,2.6065,2.6066,2.6047,2.6033,2.5997,2.5987,2.5991,2.5921,2.5999,2.6011,2.6029,2.6044,2.6056,2.6068,2.5927,2.5927,2.5927,2.6191,2.6154,2.6193,2.6152,2.6155,2.6116,2.6114,2.6094,2.6057,2.6076,2.6078,2.6165,2.6184,2.6193,2.6207,2.6093,2.6093,2.6094,2.6094,2.6297,2.6318,2.6265,2.6285,2.6245,2.6261,2.6225,2.6198,2.6206,2.6162,2.6175,2.6129,2.621,2.6219,2.6098,2.6097,2.6097,2.6096,2.6096,2.639,2.6393,2.6379,2.6377,2.6379,2.6336,2.6346,2.6309,2.6275,2.6288,2.6285,2.6284,2.6277,2.6289,2.629,2.629,2.629,2.629,2.6291,2.6491,2.6473,2.6486,2.6469,2.6464,2.6453,2.6414,2.6409,2.6393,2.6365,2.6365,2.6325,2.6225,2.62,2.6295,2.6294,2.6294,2.6293,2.6293,2.6612,2.6578,2.6599,2.6594,2.657,2.6573,2.6526,2.6517,2.6507,2.6513,2.6469,2.6401,2.638,2.637,2.635,2.6478,2.6478,2.6478,2.6478,2.669,2.6675,2.6687,2.6681,2.6672,2.6631,2.6654,2.6623,2.6586,2.6577,2.6553,2.6522,2.6514,2.6498,2.6485,2.6465,2.662,2.662,2.662,2.6762,2.6745,2.6772,2.6735,2.6713,2.6694,2.6714,2.6709,2.666,2.6625,2.6569,2.6563,2.6513,2.6499,2.6464,2.6445,2.6407,0,0]},{"header":{"parameterUnit":"m.s-1","parameterCategory":1,"la1":30.2992,"la2":30.254,"lo1":-89.0895,"lo2":-89.0443,"dy":0.0025,"dx":0.0025,"nx":19,"ny":19,"refTime":"2026-05-24T21:00:00:Z","depth":0,"parameterNumber":3,"parameterNumberName":"V-component_of_WINDS"},"data":[0,0,0,-0.8641,-0.8642,-0.8654,-0.8654,-0.8687,-0.8688,0,0,0,0,0,0,0,0,0,0,0,-0.8648,-0.8648,-0.8641,-0.8642,-0.8654,-0.8654,-0.8687,-0.8688,0,0,0,0,0,0,0,0,0,0,0,-0.8647,-0.8648,-0.8649,-0.8642,-0.8654,-0.8654,-0.8687,-0.8672,0,0,0,0,0,0,0,0,0,0,-0.8657,-0.8672,-0.8648,-0.8649,-0.8642,-0.8654,-0.8654,-0.8671,-0.8673,-0.8689,0,-0.8706,0,-0.8698,-0.8691,-0.8691,0,0,0,-0.8635,-0.8671,-0.8665,-0.8649,-0.8642,-0.8654,-0.8646,-0.8672,-0.8674,-0.8692,-0.8706,-0.8707,-0.8698,-0.8692,-0.8692,-0.881,-0.8811,0,0,-0.8634,-0.8655,-0.8664,-0.8667,-0.8665,-0.8646,-0.8647,-0.8673,-0.869,-0.8706,-0.8708,-0.8699,-0.8692,-0.8692,-0.8809,-0.8811,0,0,0,-0.8637,-0.8655,-0.8648,-0.8666,-0.8667,-0.8647,-0.8647,-0.8689,-0.8685,-0.8708,-0.8699,-0.8692,-0.8693,-0.8808,-0.881,-0.8876,0,0,0,-0.8636,-0.8657,-0.8648,-0.8662,-0.8667,-0.8678,-0.8663,-0.8683,-0.8685,-0.8699,-0.8692,-0.8693,-0.8807,-0.8809,-0.8872,-0.8904,0,0,0,-0.8643,-0.8658,-0.8663,-0.8663,-0.8669,-0.8677,-0.8674,-0.8683,-0.868,-0.8691,-0.8693,-0.8807,-0.8809,-0.8868,-0.8898,-0.8943,0,0,0,-0.8658,-0.8721,-0.8664,-0.8731,-0.8669,-0.8717,-0.8674,-0.8708,-0.8726,-0.8692,-0.8807,-0.881,-0.8867,-0.8895,-0.894,-0.8986,-0.9007,0,0,-0.8749,-0.8733,-0.877,-0.872,-0.8784,-0.8713,-0.8787,-0.8783,-0.8764,-0.8796,-0.8799,-0.8873,-0.8898,-0.8942,-0.9113,-0.913,0,0,0,-0.8807,-0.8835,-0.8847,-0.8864,-0.8862,-0.8863,-0.8845,-0.8843,-0.887,-0.8785,-0.89,-0.8914,-0.8939,-0.8961,-0.8975,-0.8996,-0.882,-0.882,-0.8819,-0.8969,-0.8941,-0.9003,-0.8977,-0.8994,-0.8975,-0.8987,-0.8982,-0.8949,-0.8977,-0.8987,-0.9094,-0.912,-0.913,-0.9153,-0.9008,-0.9008,-0.9008,-0.9008,-0.9102,-0.9138,-0.9093,-0.9136,-0.9107,-0.9143,-0.9128,-0.9103,-0.9134,-0.9084,-0.9105,-0.9054,-0.915,-0.9168,-0.9013,-0.9012,-0.9011,-0.9011,-0.9011,-0.9207,-0.922,-0.9216,-0.9239,-0.926,-0.9231,-0.9263,-0.9235,-0.9209,-0.9229,-0.9238,-0.9237,-0.9235,-0.9235,-0.9236,-0.9236,-0.9236,-0.9237,-0.9237,-0.9319,-0.9312,-0.9342,-0.9345,-0.9353,-0.936,-0.9342,-0.9349,-0.9351,-0.9328,-0.9328,-0.9294,-0.9163,-0.9132,-0.9243,-0.9241,-0.9241,-0.924,-0.924,-0.9468,-0.943,-0.9476,-0.9484,-0.9486,-0.951,-0.9473,-0.9491,-0.9493,-0.951,-0.9471,-0.9378,-0.9359,-0.9347,-0.9322,-0.9475,-0.9475,-0.9475,-0.9475,-0.9559,-0.9546,-0.9587,-0.9602,-0.9614,-0.9585,-0.964,-0.9627,-0.9607,-0.9607,-0.958,-0.9543,-0.9532,-0.952,-0.9505,-0.9481,-0.967,-0.9671,-0.9671,-0.965,-0.9637,-0.9689,-0.9668,-0.9668,-0.9669,-0.972,-0.9741,-0.971,-0.9678,-0.9607,-0.9599,-0.9538,-0.952,-0.9489,-0.9466,-0.9421,0,0]}]]